ONEWEB-0709 (55172 NORAD) Tracking and Keplerian Element Data

This shows tracking and keplerian element data for the satellite.

Feedback or suggestion? Click here.




ElementValue
Catalog55172
NameONEWEB-0709
Epoch Orbit1106
Epoch Day85.25001157
Epoch Year2023
RAAN256.9864
Inclination87.3199
Eccentricity0.0012725
Argument of Perigee24.1032
Mean Anonmoly209.8952
Mean Motion13.9322921
Decay Rate-0.00506025
L11 55172U 23004AJ 23085.25001157 -.00506025 00000+0 -40695+0 0 9990
L22 55172 87.3199 256.9864 0012725 24.1032 209.8952 13.93229210 11063



Live tracking and technical data element details for ONEWEB-0709 (NORAD 55172). ONEWEB-0709 can be tracked NOW for your location showing map with azimuth and elevation plus other details from your city location.







IsCatalogInMostPopularTable: catalog: 55172, numindb: 10
Update: records affected: 1



GetName: 55172 ONEWEB-0709

Hit Count: updated at: Mon, 27 Mar 2023 06:22:35 GMT